Flag for Canada Weather past 2 weeks in Greater Sudbury, Ontario, Canada

Now
41 °F

Low clouds.


Feels Like: 37 °F
Forecast: 40 / 56 °F
Wind: 6 mph from Northeast

Location: Sudbury


UV Index: 3 (Moderate)

Visibility: 8 mi


Pressure: 29.99 "Hg

Humidity: 87%

Dew point: 37 °F

Location of Greater SudburyLocation

Historic Weather in Greater Sudbury

°F

Greater Sudbury temperature yesterday

Maximum temperature yesterday: 46 °F (at 4:00 PM)
Minimum temperature yesterday: 34 °F (at 6:00 AM)
Average temperature yesterday: 40 °F

Past Weeks' High & Low Weather Summary

 TemperatureHumidityPressure
High50 °F (Apr 7, 6:00 PM)100% (Apr 13, 4:00 AM)30.61 "Hg (Apr 13, 4:00 AM)
Low7 °F (Apr 16, 4:00 AM)26% (Apr 19, 4:00 PM)29.33 "Hg (Apr 14, 12:00 PM)
Average34 °F69%30.01 "Hg
* Reported Apr 6 10:00 AM — Apr 21 10:00 AM, Greater Sudbury, Weather by CustomWeather, © 2014

Note: Actual official high and low records may vary slightly from our data, if they occured in-between our weather recording intervals... More about our weather records

Advertising

Historic Weather Conditions — Data for Previous 24 hours

 ConditionsComfort  
Time TempWeatherWind HumidityBarometerVisibility
10:00 AM
Apr 21
41 °FLow clouds.6 mph87%29.99 "Hg8 mi
9:00 AM41 °FLow clouds.2 mph87%30.00 "Hg8 mi
8:00 AM41 °FFog.7 mph93%30.00 "Hg4 mi
7:00 AM37 °FDrizzle. Fog.5 mph93%30.01 "Hg2 mi
6:00 AM37 °FLight rain. Low clouds.2 mph87%30.01 "Hg10 mi
5:00 AM37 °FLight rain. Overcast.3 mph87%30.01 "Hg15 mi
4:00 AM37 °FLight rain. Overcast.8 mph87%30.01 "Hg15 mi
3:00 AM39 °FLight rain. Mostly cloudy.5 mph81%30.00 "Hg12 mi
2:50 AM39 °FLight rain. Overcast.2 mph81%30.01 "Hg12 mi
2:00 AM39 °FOvercast.12 mph81%30.03 "Hg15 mi
1:50 AM39 °FOvercast.10 mph81%30.04 "Hg15 mi
1:00 AM39 °FLight rain. Overcast.7 mph81%30.05 "Hg15 mi
12:00 AM37 °FLight rain. Overcast.6 mph87%30.08 "Hg15 mi
11:00 PM
Apr 20
37 °FLight rain. Mostly cloudy.3 mph87%30.10 "Hg15 mi
10:00 PM41 °FLight rain. Mostly cloudy.5 mph70%30.13 "Hg12 mi
9:00 PM43 °FMostly cloudy.6 mph61%30.12 "Hg15 mi
8:00 PM43 °FMostly cloudy.10 mph61%30.12 "Hg15 mi
7:00 PM45 °FCloudy.13 mph57%30.14 "Hg15 mi
6:00 PM45 °FMore clouds than sun.13 mph57%30.17 "Hg15 mi
5:00 PM46 °FMostly cloudy.16 mph53%30.16 "Hg20 mi
4:00 PM46 °FMostly cloudy.16 mph50%30.17 "Hg15 mi
3:00 PM45 °FMore clouds than sun.12 mph57%30.20 "Hg20 mi
2:00 PM41 °FLight rain. Mostly cloudy.9 mph66%30.24 "Hg20 mi
1:00 PM41 °FLight rain. Overcast.14 mph66%30.27 "Hg20 mi
12:00 PM43 °FOvercast.14 mph53%30.29 "Hg20 mi
11:00 AM39 °FMostly cloudy.9 mph65%30.31 "Hg20 mi
Weather by CustomWeather, © 2014

See weather overview